Regional Weather Roundup
Issued by NWS

Home | Current Version | Previous Version | Graphics & Text | Print | Product List | Glossary On
Versions: 1 2 3 4 5 6 7 8 9 10 11 12 13 14 15 16 17 18 19 20 21 22 23 24 25 26 27 28 29 30 31 32 33 34 35 36 37 38 39 40 41 42 43 44 45 46 47 48 49 50
000
ASUS43 KMKX 050010
RWRWI

WISCONSIN REGIONAL WEATHER ROUNDUP
NATIONAL WEATHER SERVICE MILWAUKEE/SULLIVAN WI
600 PM CST WED MAR 04 2015

NOTE: "FAIR" INDICATES FEW OR NO CLOUDS BELOW 12,000 FEET WITH NO
SIGNIFICANT WEATHER AND/OR OBSTRUCTIONS TO VISIBILITY.

WIZ001-002-006>008-014>016-023>028-050100-
NORTHWEST WISCONSIN

CITY           SKY/WX    TMP DP  RH WIND       PRES   REMARKS
SUPERIOR ARPT  CLEAR      4 -13  45 W10       30.28R WCI -12
6HR MIN TEMP:   4; 6HR MAX TEMP:   5;

ASHLAND        PTCLDY     2 -11  54 W8        30.25R WCI -12
6HR MIN TEMP:   2; 6HR MAX TEMP:   7;

HAYWARD        PTCLDY     3 -14  45 VRB5      30.21R WCI  -6
6HR MIN TEMP:   3; 6HR MAX TEMP:   7; 6HR PCP: TRACE;

SIREN          CLEAR      4 -12  47 NW9       30.26R WCI -11
6HR MIN TEMP:   4; 6HR MAX TEMP:   8;

CUMBERLAND     PTCLDY     3 -13  47 NW14      30.21R WCI -15
RICE LAKE      MOCLDY     5 -10  48 NW10      30.24R WCI -10
6HR MIN TEMP:   5; 6HR MAX TEMP:   9;

CHETEK         CLEAR      4 -10  52 MISG      30.23R
6HR MIN TEMP:   4; 6HR MAX TEMP:   9;

LADYSMITH      PTCLDY     5  -9  52 NW10      30.20R WCI -10
6HR MIN TEMP:   5; 6HR MAX TEMP:   9;

EAU CLAIRE     CLEAR      7 -11  43 NW10      30.23R WCI  -8
6HR MIN TEMP:   7; 6HR MAX TEMP:  11;

MENOMONIE      CLEAR      8  -9  46 NW13G20   30.25R WCI  -8
6HR MIN TEMP:   8; 6HR MAX TEMP:  13;

NEW RICHMOND   CLEAR      4 -12  47 NW15G21   30.26R WCI -14
6HR MIN TEMP:   4; 6HR MAX TEMP:  10;

OSCEOLA        CLEAR      5 -11  46 W12       30.31R WCI -11
6HR MIN TEMP:   5; 6HR MAX TEMP:  10;

$$

WIZ003>005-009-010-017-018-050100-
NORTH CENTRAL WISCONSIN

CITY           SKY/WX    TMP DP  RH WIND       PRES   REMARKS
MANITOWISH WTR CLEAR     -1 -13  56 NW9       30.12R WCI -16
6HR MIN TEMP:  -1; 6HR MAX TEMP:   5;

ARBOR VITAE    CLEAR      2  -6  69 NW7       30.11R WCI -11
6HR MIN TEMP:   2; 6HR MAX TEMP:   6;

WOODRUFF       CLEAR      2  -6  69 NW7       30.11R WCI -11
6HR MIN TEMP:   2; 6HR MAX TEMP:   6;

RHINELANDER    PTCLDY     2 -10  57 NW8       30.11R WCI -12
6HR MIN TEMP:   2; 6HR MAX TEMP:   6;

EAGLE RIVER    MOCLDY     1 -10  60 NW12      30.10R WCI -15
6HR MIN TEMP:   1; 6HR MAX TEMP:   5;

LAND O LAKES   MOCLDY     1  -9  61 NW5       30.10R WCI  -8
6HR MIN TEMP:   1; 6HR MAX TEMP:   6;

PHILLIPS       CLOUDY     3 -12  49 W5        30.14R WCI  -7
6HR MIN TEMP:   3; 6HR MAX TEMP:   6;

TOMAHAWK       CLEAR      3 -13  47 W6        30.14R WCI  -8
6HR MIN TEMP:   3; 6HR MAX TEMP:   8;

MEDFORD        CLEAR      4 -13  45 NW12G17   30.14R WCI -12
6HR MIN TEMP:   4; 6HR MAX TEMP:   8;

MERRILL        CLEAR      6 -12  43 NW9G17    30.14R WCI  -8
6HR MIN TEMP:   6; 6HR MAX TEMP:  11;

$$

WIZ029-030-035-036-043>047-050100-
CENTRAL WISCONSIN

CITY           SKY/WX    TMP DP  RH WIND       PRES   REMARKS
WAUSAU         CLEAR      6 -11  45 W13       30.14R WCI -10
6HR MIN TEMP:   6; 6HR MAX TEMP:   9;

MOSINEE        CLEAR      7  -9  47 W16G23    30.16R WCI -11
MARSHFIELD     CLEAR      6 -10  47 NW16      30.17R WCI -12
6HR MIN TEMP:   6; 6HR MAX TEMP:  11;

STEVENS POINT  CLEAR      6 -13  40 NW12G20   30.18R WCI -10
6HR MIN TEMP:   6; 6HR MAX TEMP:  10;

WAUPACA        CLEAR     12 -10  37 NW10      30.20R WCI  -2
6HR MIN TEMP:  12; 6HR MAX TEMP:  17;

WAUTOMA        CLEAR     11  -9  40 NW8       30.21R WCI  -1
6HR MIN TEMP:  11; 6HR MAX TEMP:  16;

WISC RAPIDS    MOCLDY     9 -10  42 W8        30.20R WCI  -3
6HR MIN TEMP:   9; 6HR MAX TEMP:  13;

CAMP DOUGLAS   PTCLDY    10  -6  48 W9        30.22R WCI  -2
$$

WIZ011>013-019>022-031-037>040-048>050-050100-
NORTHEAST WISCONSIN

CITY           SKY/WX    TMP DP  RH WIND       PRES   REMARKS
ANTIGO         CLEAR      3 -12  50 NW9       30.11R WCI -11
6HR MIN TEMP:   3; 6HR MAX TEMP:   8;

SHAWANO        CLEAR     12 -12  33 W6        30.17R WCI   3
6HR MIN TEMP:  12; 6HR MAX TEMP:  16;

OCONTO         CLEAR     11 -11  37 NW5       30.17R WCI   2
6HR MIN TEMP:  10; 6HR MAX TEMP:  17;

STURGEON BAY   CLEAR     10 -11  37 NW12      30.16R WCI  -4
6HR MIN TEMP:  10; 6HR MAX TEMP:  16;

GREEN BAY      CLEAR     10  -8  44 W13       30.18R WCI  -5
6HR MIN TEMP:  10; 6HR MAX TEMP:  14;

MANITOWOC      CLEAR     11  -8  42 NW12      30.20R WCI  -3
6HR MIN TEMP:  11; 6HR MAX TEMP:  17;

APPLETON       CLEAR      9 -13  37 NW12      30.18R WCI  -6
CLINTONVILLE   CLEAR     10 -11  37 W13       30.18R WCI  -5
OSHKOSH        CLEAR     11  -6  46 NW10      30.19R WCI  -3
6HR MIN TEMP:  11; 6HR MAX TEMP:  16;

$$

WIZ032>034-041-042-053>061-050100-
SOUTHWEST WISCONSIN

CITY           SKY/WX    TMP DP  RH WIND       PRES   REMARKS
LA CROSSE      PTCLDY    12  -5  46 W13       30.27R WCI  -3
6HR MIN TEMP:  12; 6HR MAX TEMP:  18;

SPARTA         PTCLDY    11  -5  47 W8        30.25R WCI   0
6HR MIN TEMP:  11; 6HR MAX TEMP:  16;

VIROQUA        CLEAR      9  -5  53 W12       30.21R WCI  -6
6HR MIN TEMP:   9; 6HR MAX TEMP:  14;

BOSCOBEL       CLEAR     14  -4  44 W9        30.27R WCI   2
6HR MIN TEMP:  14; 6HR MAX TEMP:  18; 6HR PCP: TRACE;

PRAIRIE DU CHI PTCLDY    12  -2  53 W14       30.28S WCI  -4
6HR MIN TEMP:  12; 6HR MAX TEMP:  16;

PLATTEVILLE    CLEAR     11  -1  58 W14       30.25R WCI  -5
6HR MIN TEMP:  11; 6HR MAX TEMP:  15;

$$

WIZ056-057-062-063-064-067-068-050100-
SOUTH CENTRAL WISCONSIN

CITY           SKY/WX    TMP DP  RH WIND       PRES   REMARKS
REEDSBURG      CLEAR     12  -5  46 W13       30.22R WCI  -3
6HR MIN TEMP:  12; 6HR MAX TEMP:  16;

BARABOO/DELLS  CLEAR     11  -8  41 NW8       30.20R WCI   0
6HR MIN TEMP:  11; 6HR MAX TEMP:  16;

LONE ROCK      CLEAR     13  -6  42 NW14      30.25R WCI  -2
6HR MIN TEMP:  13; 6HR MAX TEMP:  18;

MINERAL POINT  PTCLDY    14  -4  44 W14       30.20R WCI  -1
MADISON        PTCLDY    14  -5  42 NW8       30.21R WCI   3
6HR MIN TEMP:  14; 6HR MAX TEMP:  18;

MIDDLETON      CLEAR     15  -7  38 W10G17    30.21R WCI   2
6HR MIN TEMP:  15; 6HR MAX TEMP:  20;

WATERTOWN      CLEAR     14  -4  43 W7        30.20R WCI   4
6HR MIN TEMP:  14; 6HR MAX TEMP:  19;

MONROE         PTCLDY    12   1  62 W13       30.20R WCI  -3
JANESVILLE     CLEAR     16  -2  45 W13       30.21R WCI   2
$$

WIZ051-052-058>065-066-070>072-050100-
SOUTHEAST WISCONSIN

CITY           SKY/WX    TMP DP  RH WIND       PRES   REMARKS
MILWAUKEE      PTCLDY    17  -5  37 NW9       30.19R WCI   6
6HR MIN TEMP:  17; 6HR MAX TEMP:  21;

WAUKESHA       PTCLDY    12  -6  44 W12       30.19R WCI  -2
MILWAUKEE/TIMM CLEAR     16  -8  35 NW12G17   30.19R WCI   3
RACINE         PTCLDY    16  -5  39 W10       30.21R WCI   4
6HR MIN TEMP:  16; 6HR MAX TEMP:  20;

BURLINGTON     CLEAR     12  -6  45 W8        30.21R WCI   0
6HR MIN TEMP:  11; 6HR MAX TEMP:  18;

KENOSHA        PTCLDY    15  -4  42 W12       30.19R WCI   2
6HR MIN TEMP:  15; 6HR MAX TEMP:  19;

FOND DU LAC    CLEAR     12  -6  44 NW9       30.18R WCI   0
6HR MIN TEMP:  12; 6HR MAX TEMP:  17;

SHEBOYGAN      CLEAR     12  -6  44 NW12      30.18R WCI  -2
6HR MIN TEMP:  12; 6HR MAX TEMP:  16;

WEST BEND      CLEAR     14  -8  37 W10G20    30.17R WCI   1
JUNEAU         CLEAR     13  -6  42 W7        30.19R WCI   2
6HR MIN TEMP:  12; 6HR MAX TEMP:  17;

$$

LSZ147-162-050100-
LAKE SUPERIOR

STATION/POSITION TIME  TEMP    WIND        PRES    WAVE
                       AIR SEA DIR/SP/G            HT/PER
                 (UTC) (F)     (DEG/KT/KT) (MB)    (FT/S)
DEVILS ISLAND    0000    7     300/ 16/ 22 1025.5R
PORT WING        2300    5     290/ 11/ 16 1024.0
SAXON HARBOR     2300    5     280/ 10/ 22 1023.4
$$

LMZ867-665-643>646-050100-
LAKE MICHIGAN

STATION/POSITION TIME  TEMP    WIND        PRES    WAVE
                       AIR SEA DIR/SP/G            HT/PER



USA.gov is the U.S. government's official web portal to all federal, state and local government web resources and services.